Other Surface Observations
Issued by NWS Charleston, SC

Current Version | Previous Version | Text Only | Print | Product List | Glossary On
Versions: 1 2 3 4 5 6 7 8 9 10 11 12 13 14 15 16 17 18 19 20 21 22 23 24 25 26 27 28 29 30 31 32 33 34 35 36 37 38 39 40 41 42 43 44 45 46 47 48 49 50
000
SXUS52 KCHS 011226
OSOCHS

MARINE OBSERVATIONS
NATIONAL WEATHER SERVICE CHARLESTON SC
700 AM EST SUN MAR 01 2015

...DOWNTOWN CHARLESTON AND HARBOR...

CITY           SKY/WX    TMP DP  RH WIND       PRES   REMARKS
WATERFRONT PRK   N/A     43 N/A N/A N12         N/A
FORT JOHNSON   NOT AVBL

...LAKE MOULTRIE...

CITY           SKY/WX    TMP DP  RH WIND       PRES   REMARKS
PINOPOLIS        N/A     39  36  87 N8        30.42F WCI  34

...LAKE AND SUPPLEMENTAL COASTAL OBSERVATIONS...

STATION/POSITION TIME  TEMP    WIND        PRES    WAVE   SWELL
                       AIR SEA DIR/SP/G            HT/PER HT/PER/DIR
                 (UTC) (F)     (DEG/KT/KT) (MB)    (FT/S) (FT/S/D)
FORT PULASKI     1100   43 48  360/  7/  9 1032.4R
SAPELO ISLAND    1200   45      20/ 11     1031.0S
UPR LAKE MARION  NOT AVBL
WINYAH BAY       1145   39      10/  4     1032.0S
LAKE MURRAY      1200   33      20/  3/  5 1033.2S
ACE BASIN NERRS  NOT AVBL


...C-MAN AND BUOY OBSERVATIONS...

STATION/POSITION TIME  TEMP    WIND        PRES    WAVE   SWELL
                       AIR SEA DIR/SP/G            HT/PER HT/PER/DIR
                 (UTC) (F)     (DEG/KT/KT) (MB)    (FT/S) (FT/S/D)
BUOY 41004       1150   67 66  110/ 16/ 21 1030.2R   8/ 8   5/ 8
BUOY 41008       1150   50 53   30/ 19/ 23 1030.1R   7/ 7   3/ 90/11
FOLLY BEACH CMAN 1200   42      20/ 12/ 14 1032.5R
CAPERS NS BUOY   NOT AVBL
FRIPP NS BUOY    1100   44      30/ 16/ 17 1030.4R
5E ST. MARYS GA  1121      52                N/A     7/ 7   2/ 90/11


STATION/POSITION TIME  TEMP    WIND        PRES    WAVE   SWELL
                       AIR SEA DIR/SP/G            HT/PER HT/PER/DIR
                 (UTC) (F)     (DEG/KT/KT) (MB)    (FT/S) (FT/S/D)
FRYING PAN BUOY  1150   63 61  120/ 14/ 16 1032.5R   6/ 7   3/ 90/ 7
BUOY 41025       NOT AVBL
CAPE LOOKOUT NC  1200   38      20/  8/ 11 1034.7R
BUOY 41002       1150   67 71  100/ 21/ 25 1032.6R  10/ 9
BUOY 41010       1120   71 74   90/ 21/ 25 1027.6R
ST AUGUSTINE FL  1200   53     350/ 15/ 16 1029.6R

$$



USA.gov is the U.S. government's official web portal to all federal, state and local government web resources and services.